Volver al catálogo

STARLINK-32919

ActivoComunicacionesVLEO
NORAD 63150·PAYLOAD·🇺🇸 United States

Lanzado Mar 3, 2025 desde Cape Canaveral Space Force Station

Loading…

Próximos Pases (próximas 24 horas)

TLE

ActualizadoSource: CelesTrak SupGP

Época: Sep 14, 2026, 21:12 UTC

1 63150C 25043U   26257.88381944  .00054935  00000+0  19902-2 0  2571
2 63150  43.0021  27.7520 0001497 273.8709 215.7055 15.27543459    18

Sigue STARLINK-32919 en tiempo real con AllMySat

Download on the App Store